Terminal Aerodrome Forecast
Issued by NWS Wilmington, OH

Home | Current Version | Previous Version | Text Only | Print | Product List | Glossary On
Versions: 1 2 3 4 5 6 7 8 9 10 11 12 13 14 15 16 17 18 19 20 21 22 23 24 25 26 27 28 29 30 31 32 33 34 35 36 37 38 39 40 41 42 43 44 45 46 47 48 49 50
000
FTUS41 KILN 260825 AAB
TAFCVG
TAF AMD
KCVG 260825Z 2608/2712 36004KT P6SM OVC008
     FM261500 33005KT P6SM OVC012
     FM262000 33008KT P6SM OVC022
     FM270200 36007KT P6SM VCSH OVC018=

USA.gov is the U.S. government's official web portal to all federal, state and local government web resources and services.